Location: Bieujac
(44.5398°N, 0.1549°W)
Time: 23:37:24
(UTC+00:00)

Cosmos 2322 Rocket - Pass Details

Date: 17 November 2019
Orbit: 832 x 851 km, 71.0° (Epoch: 09 December)

Event Time Altitude Azimuth Distance (km) Brightness Sun altitude
Exits shadow 05:01:00 13° 340° (NNW) 2,263 4.2 -20.9°
Maximum altitude 05:06:05 68° 62° (ENE) 910 2.5 -20.0°
Drops below altitude 10° 05:11:44 10° 146° (SE) 2,465 5.2 -19.0°
Sets 05:14:11 0° 149° (SSE) 3,399 5.9 -18.6°
